Location: Saint+Peter+Port
(49.4500°N, 2.5330°W)
Time: 19:29:00
(UTC+00:00)

BlueWalker 3 - Visible Passes

Search period start: 28 February 2024 00:00
Search period end: 09 March 2024 00:00
Orbit: 485 x 500 km, 53.2° (Epoch: 28 February)

Date Brightness Start Highest point End Pass type
(mag) Time Alt. Az. Time Alt. Az. Time Alt. Az.
28 Feb 2.3 18:46:31 10° WNW 18:50:13 50° N 18:53:00 16° E visible
28 Feb 3.1 20:24:53 10° WNW 20:27:29 40° W 20:27:29 40° W visible
29 Feb 2.4 18:22:39 10° WNW 18:26:21 49° N 18:30:02 10° E visible
29 Feb 2.0 20:01:01 10° WNW 20:04:42 68° SW 20:04:42 68° SW visible
01 Mar 2.0 19:37:08 10° WNW 19:40:54 70° SSW 19:41:57 44° SE visible
01 Mar 5.1 21:16:22 10° W 21:16:26 10° W 21:16:26 10° W visible
02 Mar 2.0 19:13:14 10° WNW 19:17:01 72° SSW 19:19:16 23° SE visible
02 Mar 4.6 20:52:25 10° W 20:53:45 15° WSW 20:53:45 15° WSW visible
03 Mar 2.0 18:49:20 10° WNW 18:53:07 74° SSW 18:56:39 11° ESE visible
03 Mar 4.2 20:28:28 10° W 20:30:53 16° SW 20:31:09 16° SW visible
04 Mar 2.0 18:25:25 10° WNW 18:29:12 75° SSW 18:32:58 10° ESE visible
04 Mar 4.3 20:04:29 10° W 20:06:59 17° SW 20:08:37 13° SSW visible
05 Mar 4.4 19:40:30 10° W 19:43:04 18° SW 19:45:37 10° S visible
06 Mar 4.4 19:16:30 10° W 19:19:08 18° SW 19:21:45 10° S visible
07 Mar 4.5 18:52:30 10° W 18:55:11 19° SW 18:57:52 10° S visible
